FW6147 Weather Reports


time (UTC)temp
F
wind
direction
speed
knots
gust
knots
rain 1hr
in
rain 24hr
in
rain mn
in
humidity
%
barometer
mb
20260902000600 86 359 3.5 7.0 0.00 0.00 0.00 40 1020.0
20260902000106 86 360 2.6 7.0 0.00 0.00 0.00 41 1020.0
20260901235556 86 345 3.5 7.0 0.00 0.00 0.00 40 1020.0
20260901235056 86 341 1.7 4.3 0.00 0.00 0.00 40 1020.1
20260901234607 86 18 1.7 6.1 0.00 0.00 0.00 42 1020.1
20260901234056 85 21 3.5 6.1 0.00 0.00 0.00 40 1020.1
20260901233557 85 1 2.6 5.2 0.00 0.00 0.00 44 1020.1
20260901233110 85 352 2.6 5.2 0.00 0.00 0.00 41 1020.2
20260901232556 86 359 1.7 5.2 0.00 0.00 0.00 39 1020.2
20260901232056 86 359 3.5 5.2 0.00 0.00 0.00 38 1020.2
20260901231611 86 32 2.6 4.3 0.00 0.00 0.00 38 1020.2
20260901231102 87 32 1.7 5.2 0.00 0.00 0.00 40 1020.2
20260901230558 88 32 2.6 5.2 0.00 0.00 0.00 35 1020.1
20260901230119 88 23 0.0 4.3 0.00 0.00 0.00 36 1020.2
20260901225554 88 81 1.7 3.5 0.00 0.03 0.00 35 1020.2
20260901225056 88 57 0.9 3.5 0.00 0.03 0.00 34 1020.2
20260901224601 87 123 1.7 6.1 0.00 0.03 0.00 34 1020.4
20260901224100 87 0 2.6 7.8 0.00 0.03 0.00 34 1020.5
20260901223556 87 125 3.5 7.8 0.00 0.03 0.00 32 1020.5
20260901223115 88 109 4.3 7.8 0.00 0.03 0.00 30 1020.5
20260901222556 87 172 1.7 8.7 0.00 0.03 0.00 30 1020.6
20260901222054 87 172 4.3 8.7 0.00 0.03 0.00 31 1020.7
20260901221607 86 201 3.5 8.7 0.00 0.03 0.00 32 1020.8
20260901221054 83 190 0.9 2.6 0.00 0.03 0.00 37 1020.9
20260901220554 83 193 0.9 4.3 0.00 0.03 0.00 36 1021.0
20260901220107 83 193 0.9 4.3 0.00 0.03 0.00 40 1021.1
20260901215553 84 193 1.7 4.3 0.00 0.03 0.00 40 1021.1
20260901215053 84 188 0.9 6.1 0.00 0.03 0.00 45 1021.2
20260901214606 84 0 2.6 6.1 0.00 0.03 0.00 45 1021.2
20260901214054 84 181 0.9 3.5 0.00 0.03 0.00 44 1021.3
20260901213553 84 5 0.9 2.6 0.00 0.03 0.00 42 1021.3
20260901213138 84 5 0.9 2.6 0.00 0.03 0.00 43 1021.4
20260901212555 84 4 0.9 3.5 0.00 0.03 0.00 42 1021.5
20260901212058 84 0 0.0 3.5 0.00 0.03 0.00 41 1021.5
20260901211603 84 4 1.7 3.5 0.00 0.03 0.00 39 1021.5
20260901211057 85 4 1.7 3.5 0.00 0.03 0.00 39 1021.5
20260901210553 85 4 1.7 3.5 0.00 0.03 0.00 38 1021.5
20260901205552 85 0 0.0 3.5 0.00 0.03 0.00 39 1021.7
20260901205052 85 0 0.9 7.0 0.00 0.03 0.00 39 1021.8
20260901204559 86 4 2.6 7.0 0.00 0.03 0.00 38 1022.0
20260901204054 86 8 3.5 7.0 0.00 0.03 0.00 40 1022.0
20260901203554 85 124 1.7 5.2 0.00 0.03 0.00 39 1022.0
20260901203121 85 30 0.9 4.3 0.00 0.03 0.00 40 1022.2
20260901202554 85 351 0.9 4.3 0.00 0.03 0.00 38 1022.2
20260901202054 85 355 1.7 6.1 0.00 0.03 0.00 41 1022.3
20260901201602 84 23 2.6 6.1 0.00 0.03 0.00 41 1022.3
20260901201053 84 25 3.5 6.1 0.00 0.03 0.00 41 1022.4
20260901200554 84 12 1.7 5.2 0.00 0.03 0.00 43 1022.5
20260901200059 84 75 0.9 5.2 0.00 0.03 0.00 43 1022.6
20260901195554 84 59 2.6 6.1 0.00 0.03 0.00 45 1022.6
20260901195054 83 36 3.5 6.1 0.00 0.03 0.00 45 1022.6
20260901194607 83 46 2.6 5.2 0.00 0.03 0.00 45 1022.6
20260901194054 83 32 2.6 5.2 0.00 0.03 0.00 45 1022.7
20260901193551 83 37 2.6 5.2 0.00 0.03 0.00 46 1022.8
20260901193106 83 35 1.7 7.8 0.00 0.03 0.00 47 1022.8
20260901192554 83 61 3.5 7.8 0.00 0.03 0.00 47 1022.9
20260901192055 83 82 2.6 6.1 0.00 0.03 0.00 46 1022.9
20260901191622 83 32 3.5 6.1 0.00 0.03 0.00 45 1022.9
20260901191054 83 38 2.6 5.2 0.00 0.03 0.00 48 1022.9
20260901190551 82 103 1.7 4.3 0.00 0.03 0.00 50 1023.0
20260901185555 82 341 1.7 6.1 0.00 0.03 0.00 47 1023.1
20260901185051 82 333 2.6 7.0 0.00 0.03 0.00 47 1023.1
20260901184606 82 360 3.5 7.0 0.00 0.03 0.00 48 1023.1
20260901184055 82 23 0.9 4.3 0.00 0.03 0.00 49 1023.2
20260901183554 82 131 0.9 7.0 0.00 0.03 0.00 48 1023.2
20260901183105 81 94 3.5 7.0 0.00 0.03 0.00 49 1023.2
20260901182555 81 97 1.7 4.3 0.00 0.03 0.00 51 1023.4
20260901182055 81 124 1.7 4.3 0.00 0.03 0.00 51 1023.5
20260901181603 80 97 1.7 5.2 0.00 0.03 0.00 52 1023.6
20260901181052 80 57 2.6 5.2 0.00 0.03 0.00 52 1023.7
20260901180554 80 0 1.7 5.2 0.00 0.03 0.00 52 1023.7
20260901180105 80 58 0.9 5.2 0.00 0.03 0.00 51 1023.7
20260901175553 80 58 1.7 5.2 0.00 0.03 0.00 52 1023.7
20260901175053 80 0 2.6 4.3 0.00 0.03 0.00 52 1023.8
20260901174607 79 82 1.7 4.3 0.00 0.03 0.00 54 1023.8
20260901174051 79 74 2.6 5.2 0.00 0.03 0.00 54 1023.9
20260901173552 79 86 2.6 5.2 0.00 0.03 0.00 59 1024.0
20260901173058 78 24 2.6 5.2 0.00 0.03 0.00 61 1023.9
20260901172552 78 28 2.6 4.3 0.00 0.03 0.00 61 1024.0
20260901172054 77 42 0.9 4.3 0.00 0.03 0.00 64 1024.0
20260901171606 76 56 0.0 4.3 0.00 0.03 0.00 65 1024.1
20260901171052 75 68 0.9 4.3 0.00 0.03 0.00 66 1024.0
20260901170555 75 56 1.7 4.3 0.00 0.03 0.00 65 1023.9
20260901170105 75 49 2.6 4.3 0.00 0.03 0.00 64 1023.9
20260901165550 74 32 1.7 4.3 0.00 0.03 0.00 68 1024.0
20260901165055 74 41 2.6 4.3 0.00 0.03 0.00 69 1023.9
20260901164605 74 19 1.7 4.3 0.00 0.03 0.00 73 1024.0
20260901164054 73 23 0.0 3.5 0.00 0.03 0.00 74 1023.9
20260901163554 73 23 1.7 3.5 0.00 0.03 0.00 73 1023.8
20260901163105 73 0 0.0 3.5 0.00 0.03 0.00 75 1023.8
20260901162550 72 16 0.9 4.3 0.00 0.03 0.00 77 1023.8
20260901162052 72 19 1.7 5.2 0.00 0.03 0.00 78 1023.7
20260901161603 72 30 0.9 5.2 0.00 0.03 0.00 80 1023.6
20260901161050 71 46 0.9 5.2 0.00 0.03 0.00 81 1023.7
20260901160551 71 0 0.9 3.5 0.00 0.03 0.00 81 1023.8
20260901160118 70 53 1.7 3.5 0.00 0.03 0.00 82 1023.9
20260901155556 70 54 0.9 3.5 0.00 0.06 0.00 82 1023.8
20260901155054 70 48 0.0 3.5 0.00 0.06 0.00 83 1023.8
20260901154603 70 48 1.7 3.5 0.00 0.06 0.00 83 1023.8
20260901154054 70 51 0.9 3.5 0.00 0.06 0.00 84 1023.6
20260901153557 70 51 0.9 3.5 0.00 0.06 0.00 85 1023.5
20260901153120 70 52 0.9 4.3 0.00 0.06 0.00 86 1023.7
20260901152554 69 47 1.7 4.3 0.00 0.06 0.00 86 1023.5
20260901152055 69 47 1.7 4.3 0.00 0.06 0.00 89 1023.5
20260901151607 69 46 0.9 3.5 0.00 0.06 0.00 89 1023.5
20260901151054 68 46 0.9 4.3 0.00 0.06 0.00 90 1023.4
20260901150555 68 46 1.7 4.3 0.00 0.06 0.00 91 1023.4
20260901150126 67 44 0.9 2.6 0.00 0.06 0.00 92 1023.4
20260901145555 67 0 0.9 2.6 0.00 0.11 0.00 92 1023.4
20260901145056 66 44 0.0 2.6 0.00 0.11 0.00 92 1023.2
20260901144626 66 44 0.9 2.6 0.00 0.11 0.00 92 1023.2
20260901144055 66 44 0.9 2.6 0.00 0.11 0.00 92 1023.1
20260901143554 66 44 0.9 2.6 0.00 0.11 0.00 93 1023.0
20260901143110 66 44 0.9 2.6 0.00 0.11 0.00 93 1023.0
20260901142557 65 44 0.9 2.6 0.00 0.11 0.00 93 1023.1
20260901142054 65 44 0.9 2.6 0.00 0.11 0.00 93 1023.1
20260901141603 65 0 0.0 2.6 0.00 0.11 0.00 93 1023.0
20260901141054 65 0 0.0 2.6 0.00 0.11 0.00 92 1023.1
20260901140557 65 0 0.0 1.7 0.00 0.11 0.00 93 1023.1
20260901140111 65 44 0.0 1.7 0.00 0.11 0.00 93 1023.0
20260901135555 65 44 0.0 1.7 0.00 0.12 0.00 93 1022.9
20260901135056 65 0 0.0 1.7 0.00 0.12 0.00 93 1022.9
20260901134623 64 0 0.0 0.9 0.00 0.12 0.00 93 1022.9
20260901134053 64 0 0.0 0.0 0.00 0.12 0.00 93 1022.9
20260901133554 64 0 0.0 0.0 0.00 0.12 0.00 93 1022.8
20260901133110 64 0 0.0 0.9 0.00 0.12 0.00 92 1022.7
20260901132557 64 0 0.0 0.9 0.00 0.12 0.00 93 1022.8
20260901132055 64 0 0.0 0.9 0.00 0.12 0.00 93 1022.7
20260901131629 64 44 0.0 0.9 0.00 0.12 0.00 93 1022.5
20260901131053 64 0 0.0 0.9 0.00 0.12 0.00 92 1022.5
20260901130556 64 0 0.0 0.9 0.00 0.12 0.00 92 1022.5
20260901130128 64 44 0.0 0.9 0.00 0.12 0.00 93 1022.5
20260901125554 64 0 0.0 0.0 0.00 0.12 0.00 93 1022.5
20260901125056 63 0 0.0 1.7 0.00 0.12 0.00 92 1022.3
20260901124600 63 0 0.0 1.7 0.00 0.12 0.00 93 1022.3
20260901124057 63 0 0.0 0.0 0.00 0.12 0.00 92 1022.3
20260901123554 63 0 0.0 2.6 0.00 0.12 0.00 92 1022.1
20260901123101 63 0 0.0 2.6 0.00 0.12 0.00 93 1022.1
20260901122600 63 44 1.7 2.6 0.00 0.12 0.00 93 1022.1
20260901122053 62 44 1.7 2.6 0.00 0.12 0.00 93 1022.1
20260901121605 62 44 1.7 2.6 0.00 0.12 0.00 93 1022.0
20260901121054 62 44 0.0 3.5 0.00 0.12 0.00 93 1022.1
20260901120554 62 44 1.7 3.5 0.00 0.12 0.00 93 1021.9
20260901120111 62 44 0.0 0.9 0.00 0.12 0.00 93 1021.8
20260901115553 62 0 0.0 1.7 0.00 0.12 0.00 92 1021.9
20260901115056 62 0 0.0 1.7 0.00 0.12 0.00 92 1021.8
20260901114603 62 44 0.0 1.7 0.00 0.12 0.00 92 1021.8
20260901114053 62 0 0.0 0.9 0.00 0.12 0.00 92 1021.8
20260901113554 62 0 0.0 0.9 0.00 0.12 0.00 92 1021.8
20260901113106 62 0 0.0 1.7 0.00 0.12 0.00 92 1021.7
20260901112554 62 0 0.0 3.5 0.00 0.12 0.00 92 1021.7
20260901112056 62 44 0.9 3.5 0.00 0.12 0.00 92 1021.8
20260901111603 62 44 1.7 3.5 0.00 0.12 0.00 92 1021.9
20260901111054 62 44 0.0 1.7 0.00 0.12 0.00 92 1021.9
20260901110553 62 0 0.0 2.6 0.00 0.12 0.00 92 1021.8
20260901110100 62 44 0.9 2.6 0.00 0.12 0.00 92 1021.9
20260901105554 62 44 0.9 2.6 0.00 0.13 0.00 92 1021.9
20260901105058 62 0 0.0 1.7 0.00 0.13 0.00 92 1021.9
20260901104609 62 44 0.9 1.7 0.00 0.13 0.00 92 1021.9
20260901104055 63 0 0.0 1.7 0.00 0.13 0.00 92 1021.9
20260901103553 63 44 0.0 1.7 0.00 0.13 0.00 92 1022.0
20260901103102 63 0 0.0 0.0 0.00 0.13 0.00 92 1022.0
20260901102554 63 0 0.0 0.0 0.00 0.13 0.00 92 1022.0
20260901102054 63 0 0.0 0.9 0.00 0.13 0.00 92 1021.9
20260901101611 63 0 0.0 1.7 0.00 0.13 0.00 92 1022.0
20260901101054 63 0 0.0 1.7 0.00 0.13 0.00 92 1022.0
20260901100558 63 0 0.0 1.7 0.00 0.13 0.00 92 1022.0
20260901100105 63 44 0.0 1.7 0.00 0.13 0.00 92 1021.9
20260901095553 63 0 0.9 1.7 0.00 0.15 0.00 91 1022.0
20260901095053 63 44 0.0 0.9 0.00 0.15 0.00 92 1022.1
20260901094601 64 44 0.0 0.0 0.00 0.15 0.00 92 1022.0
20260901094054 64 0 0.0 0.0 0.00 0.15 0.00 92 1022.0
20260901093558 64 0 0.0 0.0 0.00 0.15 0.00 92 1022.0
20260901093108 64 0 0.0 0.0 0.00 0.15 0.00 92 1022.1
20260901092554 64 0 0.0 0.0 0.00 0.15 0.00 92 1022.2
20260901092056 64 0 0.0 0.0 0.00 0.15 0.00 92 1022.2
20260901091627 64 0 0.0 0.0 0.00 0.15 0.00 92 1022.1
20260901091053 65 0 0.0 0.0 0.00 0.15 0.00 92 1022.3
20260901090553 65 0 0.0 0.0 0.00 0.15 0.00 92 1022.1
20260901085553 65 0 0.0 0.0 0.00 0.21 0.00 92 1022.1
20260901085053 65 0 0.0 0.0 0.00 0.21 0.00 92 1022.1
20260901084557 65 0 0.0 1.7 0.00 0.21 0.00 91 1022.1
20260901084056 65 0 0.0 2.6 0.00 0.21 0.00 91 1022.1
20260901083555 65 44 0.0 2.6 0.00 0.21 0.00 92 1022.1
20260901083107 65 44 0.0 1.7 0.00 0.21 0.00 92 1022.1
20260901082553 65 44 0.0 1.7 0.00 0.21 0.00 92 1022.1
20260901082054 65 44 0.0 2.6 0.00 0.21 0.00 91 1022.1
20260901081602 65 0 0.9 2.6 0.00 0.21 0.00 91 1022.2
20260901081053 65 44 0.9 2.6 0.00 0.21 0.00 91 1022.2
20260901080553 65 44 0.0 0.9 0.00 0.21 0.00 91 1022.2
20260901080104 65 0 0.0 0.0 0.00 0.21 0.00 91 1022.2
20260901075555 65 0 0.0 0.0 0.00 0.21 0.00 91 1022.3
20260901075054 65 0 0.0 0.0 0.00 0.21 0.00 91 1022.3
20260901074622 66 0 0.0 1.7 0.00 0.21 0.00 91 1022.2
20260901074054 66 0 0.0 1.7 0.00 0.21 0.00 91 1022.3
20260901073556 66 0 0.0 0.0 0.00 0.21 0.00 91 1022.4
20260901073110 66 0 0.0 0.0 0.00 0.21 0.00 91 1022.3
20260901072554 66 0 0.0 0.0 0.00 0.21 0.00 91 1022.4
20260901072056 66 0 0.0 0.0 0.00 0.21 0.00 91 1022.4
20260901071601 66 0 0.0 0.0 0.00 0.21 0.00 91 1022.4
20260901071056 66 0 0.0 0.9 0.00 0.21 0.00 91 1022.4
20260901070555 66 0 0.0 0.9 0.00 0.21 0.00 91 1022.4
20260901070113 66 0 0.0 1.7 0.00 0.21 0.00 90 1022.4
20260901065556 66 0 0.0 1.7 0.00 0.21 0.21 90 1022.3
20260901065056 66 44 0.0 1.7 0.00 0.21 0.21 91 1022.2
20260901064603 66 44 0.9 2.6 0.00 0.21 0.21 90 1022.3
20260901064055 66 44 0.0 3.5 0.00 0.21 0.21 90 1022.4
20260901063555 66 44 1.7 6.1 0.00 0.21 0.21 90 1022.4
20260901063131 66 44 2.6 6.1 0.00 0.21 0.21 90 1022.5
20260901062555 66 60 0.9 5.2 0.00 0.21 0.21 89 1022.6
20260901062055 66 0 0.0 0.9 0.00 0.21 0.21 90 1022.5
20260901061601 66 0 0.0 0.9 0.00 0.21 0.21 89 1022.6
20260901061055 66 0 0.0 0.9 0.00 0.21 0.21 89 1022.5
20260901060600 66 0 0.0 1.7 0.00 0.21 0.21 89 1022.6
20260901060109 66 60 0.0 1.7 0.00 0.21 0.21 89 1022.8
20260901055556 67 0 0.0 1.7 0.00 0.21 0.21 89 1022.8
20260901055059 67 0 0.0 0.0 0.00 0.21 0.21 89 1022.9
20260901054603 67 0 0.0 0.0 0.00 0.21 0.21 89 1022.9
20260901054056 67 0 0.0 0.0 0.00 0.21 0.21 89 1022.9
20260901053553 67 0 0.0 0.0 0.00 0.21 0.21 88 1022.8
20260901053122 67 0 0.0 0.0 0.00 0.21 0.21 88 1022.9
20260901052555 68 0 0.0 0.0 0.00 0.21 0.21 88 1022.9
20260901052054 68 0 0.0 0.0 0.00 0.21 0.21 88 1022.8
20260901051616 68 0 0.0 0.0 0.00 0.21 0.21 87 1022.8
20260901051054 68 0 0.0 0.9 0.00 0.21 0.21 87 1022.8
20260901050554 68 0 0.0 0.9 0.00 0.21 0.21 87 1022.8
20260901050104 68 0 0.0 0.9 0.00 0.21 0.21 87 1022.9
20260901045558 69 0 0.0 1.7 0.00 0.21 0.21 87 1022.9
20260901045055 68 0 0.0 3.5 0.00 0.21 0.21 86 1022.9
20260901044602 68 60 0.9 3.5 0.00 0.21 0.21 86 1023.0
20260901044054 68 60 0.0 2.6 0.00 0.21 0.21 86 1023.1
20260901043556 68 0 0.0 3.5 0.00 0.21 0.21 85 1023.1
20260901043106 68 60 0.9 5.2 0.00 0.21 0.21 85 1023.1
20260901042557 68 59 2.6 5.2 0.00 0.21 0.21 84 1022.9
20260901042057 69 65 2.6 4.3 0.00 0.21 0.21 84 1022.9
20260901041611 69 85 0.9 2.6 0.00 0.21 0.21 83 1022.9
20260901041056 69 0 0.0 2.6 0.00 0.21 0.21 82 1022.9
20260901040554 69 120 0.0 0.9 0.00 0.21 0.21 82 1022.8
20260901040106 69 0 0.0 2.6 0.00 0.21 0.21 81 1022.7
20260901035556 69 0 0.0 6.1 0.00 0.21 0.21 81 1022.3
20260901035056 69 120 1.7 6.1 0.00 0.21 0.21 82 1022.2
20260901034602 69 106 2.6 6.1 0.00 0.21 0.21 82 1022.0
20260901034053 69 0 1.7 5.2 0.00 0.21 0.21 83 1022.0
20260901033553 69 174 1.7 2.6 0.00 0.21 0.21 84 1022.0
20260901033101 69 181 0.9 2.6 0.00 0.21 0.21 83 1021.9
20260901032557 69 181 1.7 2.6 0.00 0.21 0.21 83 1022.0
20260901032055 69 181 1.7 2.6 0.00 0.21 0.21 82 1022.1
20260901031615 69 181 0.9 2.6 0.00 0.21 0.21 83 1022.0
20260901031055 69 181 0.9 3.5 0.00 0.21 0.21 83 1021.9
20260901030553 69 181 1.7 5.2 0.00 0.21 0.21 83 1021.9
20260901030105 69 181 1.7 5.2 0.00 0.21 0.21 83 1021.9
20260901025555 69 181 0.0 3.5 0.00 0.21 0.21 83 1021.9
20260901025056 69 0 0.0 3.5 0.00 0.21 0.21 83 1021.8
20260901024600 69 181 1.7 5.2 0.00 0.21 0.21 84 1021.7
20260901024055 69 182 0.9 5.2 0.00 0.21 0.21 84 1021.6
20260901023554 69 188 2.6 4.3 0.00 0.21 0.21 84 1021.6
20260901023105 70 249 0.9 2.6 0.00 0.21 0.21 85 1021.5
20260901022554 70 0 0.0 0.9 0.00 0.21 0.21 85 1021.3
20260901022056 70 0 0.0 0.9 0.00 0.21 0.21 84 1021.1
20260901021602 70 0 0.0 0.0 0.00 0.21 0.21 84 1021.1
20260901021055 70 0 0.0 0.0 0.00 0.21 0.21 83 1021.0
20260901020552 70 0 0.0 0.9 0.00 0.21 0.21 83 1021.0
20260901020104 70 0 0.0 0.9 0.00 0.21 0.21 82 1020.9
20260901015554 70 0 0.0 0.9 0.00 0.21 0.21 82 1020.7
20260901015053 70 0 0.0 0.9 0.00 0.21 0.21 81 1020.7
20260901014602 70 249 0.0 0.9 0.00 0.21 0.21 81 1020.5
20260901014055 70 0 0.0 0.9 0.00 0.21 0.21 80 1020.5
20260901013555 70 0 0.0 0.0 0.00 0.21 0.21 80 1020.4
20260901013101 69 0 0.0 0.0 0.00 0.21 0.21 79 1020.4
20260901012554 69 0 0.0 0.0 0.00 0.21 0.21 79 1020.4
20260901012055 70 0 0.0 0.0 0.00 0.21 0.21 80 1020.2
20260901011602 70 0 0.0 0.9 0.00 0.21 0.21 80 1020.3
20260901011054 70 0 0.0 0.9 0.00 0.21 0.21 79 1020.4
20260901010559 70 0 0.0 0.9 0.00 0.21 0.21 78 1020.5
20260901010101 70 0 0.0 0.0 0.00 0.21 0.21 78 1020.4
20260901005555 70 0 0.0 0.0 0.00 0.21 0.21 78 1020.3
20260901005055 70 0 0.0 0.0 0.00 0.21 0.21 77 1020.3
20260901004609 70 0 0.0 0.0 0.00 0.21 0.21 77 1020.3
20260901004051 69 0 0.0 0.0 0.00 0.21 0.21 76 1020.2
20260901003552 69 0 0.0 0.0 0.00 0.21 0.21 74 1020.2
20260901003101 69 0 0.0 0.0 0.00 0.21 0.21 76 1020.2
20260901002556 69 0 0.0 0.0 0.00 0.21 0.21 78 1020.0
20260901002054 69 0 0.0 0.0 0.00 0.21 0.21 78 1020.0
20260901001608 69 0 0.0 0.0 0.00 0.21 0.21 78 1020.0
20260901001052 69 0 0.0 0.0 0.00 0.21 0.21 79 1020.1